NORTHEAST SUFFOLK  -  Frost Advisory Frost Advisory        NORTHWEST SUFFOLK  -  Frost Advisory Frost Advisory        SOUTHEAST SUFFOLK  -  Frost Advisory Frost Advisory        SOUTHWEST SUFFOLK  -  Frost Advisory Frost Advisory      

Active alerts

Northwest Suffolk
  Details for Northwest Suffolk Frost Advisory
Southwest Suffolk
  Details for Southwest Suffolk Frost Advisory
Northeast Suffolk
  Details for Northeast Suffolk Frost Advisory
Southeast Suffolk
  Details for Southeast Suffolk Frost Advisory


WXM80 ListenWXM80 Stop

You find our weather info also at:

UK Metoffice

WeatherCloud

Weather Underground

Northeastern Weather Network

AWEKAS

Citizen Weather Observer Program (CWOP)

HAMweather, WeatherForYou, PWS Weather


Weather Underground History page Text

Daily Summary for February 11, 2017 Units:  English    Metric   Both
« Previous Day
Next Day »
Daily Weekly Monthly Yearly Custom
  High: Low: Average:
Temperature: 43.1 °F 27.4 °F 35.4 °F
Dew Point: 34.6 °F 22.7 °F 30 °F
Humidity: 92 % 59 % 81 %
Wind Speed: 4.9 mph 0.0 mph 1.1 mph
Wind Gust: 7.0 mph - -
Wind:- - SSW
Pressure: 30.10 in 29.86 in -
Precipitation: 0.00 in    
Historical Graphs
 
 
Tabular Data for February 11, 2017
Time Temperature Dew Point Pressure Wind Wind Speed Wind Gust Humidity Rainfall Rate (Hourly)
00:03 27.8 °F 22.7 °F 30.10 in WSW 1.0 mph 3.0 mph 81 % 0.00 in
00:08 27.8 °F 23.0 °F 30.10 in WSW 0.6 mph 2.3 mph 82 % 0.00 in
00:13 27.7 °F 22.9 °F 30.09 in Calm   4.0 mph 82 % 0.00 in
00:18 27.7 °F 22.9 °F 30.09 in SW 1.0 mph 2.0 mph 82 % 0.00 in
00:23 27.6 °F 23.1 °F 30.09 in Calm   4.0 mph 83 % 0.00 in
00:28 27.6 °F 22.8 °F 30.09 in Calm     82 % 0.00 in
00:33 27.6 °F 23.1 °F 30.09 in South 1.0 mph 5.0 mph 83 % 0.00 in
00:38 27.5 °F 23.0 °F 30.08 in SSE 0.9 mph 3.5 mph 83 % 0.00 in
00:43 27.5 °F 23.3 °F 30.08 in SSE 0.5 mph 3.5 mph 84 % 0.00 in
00:48 27.5 °F 23.3 °F 30.08 in SSE 2.0 mph 3.0 mph 84 % 0.00 in
00:53 27.5 °F 23.3 °F 30.07 in Calm   4.0 mph 84 % 0.00 in
00:58 27.5 °F 23.3 °F 30.08 in Calm     84 % 0.00 in
01:03 27.5 °F 23.3 °F 30.08 in Calm     84 % 0.00 in
01:08 27.5 °F 23.3 °F 30.07 in Calm     84 % 0.00 in
01:13 27.4 °F 23.3 °F 30.07 in SSE 1.0 mph 1.0 mph 84 % 0.00 in
01:18 27.4 °F 23.2 °F 30.06 in SSE 1.0 mph 3.0 mph 84 % 0.00 in
01:23 27.4 °F 23.5 °F 30.06 in SSE 1.0 mph 2.0 mph 85 % 0.00 in
01:28 27.4 °F 23.5 °F 30.06 in SSE 1.0 mph 2.0 mph 85 % 0.00 in
01:33 27.4 °F 23.5 °F 30.06 in Calm   2.0 mph 85 % 0.00 in
01:38 27.4 °F 23.8 °F 30.06 in Calm   3.0 mph 86 % 0.00 in
01:43 27.4 °F 23.8 °F 30.06 in SSE 1.0 mph 3.0 mph 86 % 0.00 in
01:48 27.4 °F 23.8 °F 30.06 in SSE 1.0 mph 4.0 mph 86 % 0.00 in
01:53 27.4 °F 23.8 °F 30.06 in SSE 0.6 mph 3.5 mph 86 % 0.00 in
01:58 27.4 °F 23.8 °F 30.06 in SSE 0.4 mph 3.5 mph 86 % 0.00 in
02:03 27.4 °F 23.8 °F 30.06 in Calm   3.0 mph 86 % 0.00 in
02:08 27.5 °F 23.9 °F 30.06 in Calm   3.0 mph 86 % 0.00 in
02:13 27.5 °F 24.1 °F 30.06 in Calm   2.0 mph 87 % 0.00 in
02:18 27.6 °F 24.2 °F 30.05 in ESE 1.0 mph 4.0 mph 87 % 0.00 in
02:23 27.6 °F 24.2 °F 30.05 in ESE 1.0 mph 3.0 mph 87 % 0.00 in
02:28 27.6 °F 24.2 °F 30.05 in Calm   3.0 mph 87 % 0.00 in
02:33 27.6 °F 24.2 °F 30.04 in ESE 1.0 mph 2.0 mph 87 % 0.00 in
02:38 27.7 °F 24.3 °F 30.03 in ESE 3.0 mph 7.0 mph 87 % 0.00 in
02:43 27.8 °F 24.4 °F 30.03 in ESE 0.4 mph 2.3 mph 87 % 0.00 in
02:48 27.8 °F 24.4 °F 30.03 in SE 1.0 mph 3.0 mph 87 % 0.00 in
02:53 27.9 °F 24.5 °F 30.02 in SE 0.2 mph 3.5 mph 87 % 0.00 in
02:58 27.9 °F 24.5 °F 30.02 in SE 0.7 mph 1.2 mph 87 % 0.00 in
03:03 28.0 °F 24.9 °F 30.01 in SE 2.2 mph 3.5 mph 88 % 0.00 in
03:08 28.1 °F 25.0 °F 30.00 in SE 1.0 mph 5.0 mph 88 % 0.00 in
03:13 28.2 °F 25.1 °F 29.99 in ESE 1.0 mph 3.0 mph 88 % 0.00 in
03:18 28.3 °F 25.2 °F 29.99 in ESE 2.0 mph 6.0 mph 88 % 0.00 in
03:23 28.4 °F 25.3 °F 29.99 in ESE 2.0 mph 4.0 mph 88 % 0.00 in
03:28 28.5 °F 25.4 °F 29.98 in SE 2.0 mph 7.0 mph 88 % 0.00 in
03:33 28.5 °F 25.4 °F 29.99 in SE 1.0 mph 4.0 mph 88 % 0.00 in
03:38 28.6 °F 25.5 °F 29.98 in SSE 2.0 mph 6.0 mph 88 % 0.00 in
03:43 28.7 °F 25.6 °F 29.98 in SE 1.0 mph 4.0 mph 88 % 0.00 in
03:48 28.8 °F 25.7 °F 29.97 in SE 2.0 mph 6.0 mph 88 % 0.00 in
03:53 28.9 °F 25.8 °F 29.97 in SSE 2.0 mph 6.0 mph 88 % 0.00 in
03:58 29.0 °F 25.9 °F 29.98 in SSE 1.9 mph 3.5 mph 88 % 0.00 in
04:03 29.2 °F 26.1 °F 29.97 in SSE 2.4 mph 4.6 mph 88 % 0.00 in
04:08 29.3 °F 26.2 °F 29.97 in SE 3.5 mph 5.8 mph 88 % 0.00 in
04:13 29.4 °F 26.3 °F 29.97 in SSE 1.8 mph 3.5 mph 88 % 0.00 in
04:18 29.4 °F 26.3 °F 29.97 in SSE 1.3 mph 2.3 mph 88 % 0.00 in
04:23 29.5 °F 26.4 °F 29.96 in SSE 0.4 mph 2.3 mph 88 % 0.00 in
04:28 29.6 °F 26.5 °F 29.96 in SE 0.2 mph 3.5 mph 88 % 0.00 in
04:34 29.6 °F 26.5 °F 29.96 in SE 1.0 mph 3.0 mph 88 % 0.00 in
04:39 29.7 °F 26.6 °F 29.97 in SE 0.2 mph 1.2 mph 88 % 0.00 in
04:44 29.8 °F 26.7 °F 29.96 in SE 0.5 mph 1.2 mph 88 % 0.00 in
04:49 29.9 °F 26.8 °F 29.96 in SE 0.3 mph 1.2 mph 88 % 0.00 in
04:54 29.9 °F 26.8 °F 29.95 in SE 0.1 mph 1.2 mph 88 % 0.00 in
04:59 30.0 °F 27.2 °F 29.95 in Calm     89 % 0.00 in
05:04 30.1 °F 27.3 °F 29.95 in Calm     89 % 0.00 in
05:09 30.1 °F 27.3 °F 29.95 in Calm     89 % 0.00 in
05:14 30.1 °F 27.3 °F 29.94 in Calm     89 % 0.00 in
05:19 30.2 °F 27.3 °F 29.93 in Calm     89 % 0.00 in
05:24 30.3 °F 27.4 °F 29.93 in Calm     89 % 0.00 in
05:29 30.3 °F 27.4 °F 29.93 in Calm     89 % 0.00 in
05:34 30.3 °F 27.4 °F 29.93 in Calm     89 % 0.00 in
05:39 30.4 °F 27.5 °F 29.93 in Calm     89 % 0.00 in
05:44 30.5 °F 27.6 °F 29.93 in Calm     89 % 0.00 in
05:49 30.5 °F 27.9 °F 29.94 in SE 0.2 mph 1.2 mph 90 % 0.00 in
05:55 30.6 °F 28.0 °F 29.93 in SE 0.7 mph 2.0 mph 90 % 0.00 in
06:00 30.6 °F 28.0 °F 29.93 in Calm     90 % 0.00 in
06:05 30.6 °F 28.0 °F 29.92 in Calm     90 % 0.00 in
06:10 30.6 °F 28.0 °F 29.93 in Calm     90 % 0.00 in
06:15 30.6 °F 28.0 °F 29.93 in Calm   1.0 mph 90 % 0.00 in
06:20 30.7 °F 28.1 °F 29.93 in Calm     90 % 0.00 in
06:25 30.7 °F 28.1 °F 29.93 in Calm     90 % 0.00 in
06:30 30.8 °F 28.2 °F 29.93 in Calm     90 % 0.00 in
06:35 30.8 °F 28.2 °F 29.93 in SE 0.1 mph 1.0 mph 90 % 0.00 in
06:40 30.9 °F 28.3 °F 29.93 in Calm     90 % 0.00 in
06:45 30.9 °F 28.3 °F 29.92 in Calm     90 % 0.00 in
06:50 31.0 °F 28.4 °F 29.92 in Calm     90 % 0.00 in
06:55 31.0 °F 28.4 °F 29.92 in Calm     90 % 0.00 in
07:00 31.0 °F 28.4 °F 29.92 in Calm     90 % 0.00 in
07:06 31.1 °F 28.8 °F 29.92 in Calm     91 % 0.00 in
07:11 31.1 °F 28.8 °F 29.92 in Calm     91 % 0.00 in
07:16 31.1 °F 28.5 °F 29.93 in SE 1.1 mph 2.3 mph 90 % 0.00 in
07:21 31.2 °F 28.9 °F 29.93 in Calm   1.2 mph 91 % 0.00 in
07:26 31.2 °F 28.6 °F 29.93 in Calm     90 % 0.00 in
07:31 31.2 °F 28.6 °F 29.92 in SE 0.5 mph 2.3 mph 90 % 0.00 in
07:36 31.3 °F 28.7 °F 29.92 in Calm   1.2 mph 90 % 0.00 in
07:41 31.3 °F 29.0 °F 29.92 in Calm   1.2 mph 91 % 0.00 in
07:46 31.4 °F 29.1 °F 29.92 in Calm   1.2 mph 91 % 0.00 in
07:51 31.5 °F 29.2 °F 29.92 in Calm     91 % 0.00 in
07:56 31.5 °F 29.2 °F 29.92 in Calm     91 % 0.00 in
08:01 31.6 °F 29.3 °F 29.92 in Calm     91 % 0.00 in
08:06 31.7 °F 29.4 °F 29.92 in Calm     91 % 0.00 in
08:11 31.9 °F 29.6 °F 29.93 in Calm     91 % 0.00 in
08:16 32.0 °F 29.7 °F 29.93 in Calm     91 % 0.00 in
08:21 32.1 °F 29.8 °F 29.93 in Calm     91 % 0.00 in
08:27 32.3 °F 30.0 °F 29.92 in Calm     91 % 0.00 in
08:37 32.7 °F 30.4 °F 29.92 in Calm     91 % 0.00 in
08:42 32.9 °F 30.8 °F 29.93 in Calm     92 % 0.00 in
08:47 33.1 °F 31.0 °F 29.92 in Calm     92 % 0.00 in
08:52 33.3 °F 31.2 °F 29.92 in Calm     92 % 0.00 in
08:57 33.6 °F 31.5 °F 29.92 in Calm     92 % 0.00 in
09:02 33.8 °F 31.7 °F 29.91 in Calm     92 % 0.00 in
09:07 34.0 °F 31.9 °F 29.92 in Calm   1.2 mph 92 % 0.00 in
09:12 34.4 °F 32.0 °F 29.92 in South 0.4 mph 2.3 mph 91 % 0.00 in
09:17 34.7 °F 32.3 °F 29.92 in South 0.4 mph 2.3 mph 91 % 0.00 in
09:22 35.0 °F 32.6 °F 29.92 in Calm   1.2 mph 91 % 0.00 in
09:27 35.3 °F 32.7 °F 29.92 in Calm     90 % 0.00 in
09:32 35.7 °F 33.1 °F 29.92 in West 1.7 mph 3.5 mph 90 % 0.00 in
09:37 36.1 °F 33.2 °F 29.93 in West 0.1 mph 1.2 mph 89 % 0.00 in
09:42 36.4 °F 33.5 °F 29.93 in West 0.3 mph 2.3 mph 89 % 0.00 in
09:47 36.7 °F 33.5 °F 29.91 in Calm   2.3 mph 88 % 0.00 in
09:53 37.0 °F 33.8 °F 29.92 in West 0.1 mph 1.0 mph 88 % 0.00 in
09:58 37.2 °F 33.7 °F 29.92 in WNW 0.6 mph 2.3 mph 87 % 0.00 in
10:03 37.4 °F 33.6 °F 29.92 in WNW 1.8 mph 3.5 mph 86 % 0.00 in
10:08 37.6 °F 33.5 °F 29.92 in Calm   1.2 mph 85 % 0.00 in
10:13 37.8 °F 33.7 °F 29.92 in WNW 1.7 mph 3.5 mph 85 % 0.00 in
10:18 38.0 °F 33.6 °F 29.92 in WNW 0.8 mph 3.5 mph 84 % 0.00 in
10:23 38.2 °F 33.8 °F 29.91 in WNW 1.5 mph 3.5 mph 84 % 0.00 in
10:28 38.3 °F 33.9 °F 29.92 in WNW 0.5 mph 2.3 mph 84 % 0.00 in
10:33 38.4 °F 34.0 °F 29.92 in WNW 1.1 mph 2.3 mph 84 % 0.00 in
10:38 38.7 °F 34.3 °F 29.91 in WNW 0.5 mph 1.2 mph 84 % 0.00 in
10:43 38.8 °F 34.4 °F 29.92 in WNW 1.4 mph 3.0 mph 84 % 0.00 in
10:48 38.9 °F 34.5 °F 29.91 in WNW 1.1 mph 3.5 mph 84 % 0.00 in
10:53 39.0 °F 34.6 °F 29.92 in WNW 2.4 mph 3.5 mph 84 % 0.00 in
10:58 39.0 °F 34.3 °F 29.92 in WNW 0.9 mph 3.5 mph 83 % 0.00 in
11:03 39.1 °F 34.4 °F 29.92 in WNW 2.0 mph 4.0 mph 83 % 0.00 in
11:08 39.3 °F 34.3 °F 29.92 in West 1.0 mph 5.0 mph 82 % 0.00 in
11:13 39.6 °F 33.9 °F 29.92 in WSW 2.0 mph 5.0 mph 80 % 0.00 in
11:18 39.8 °F 33.8 °F 29.91 in West 2.5 mph 4.6 mph 79 % 0.00 in
11:24 40.0 °F 33.0 °F 29.90 in WSW 4.6 mph 6.9 mph 76 % 0.00 in
11:29 40.3 °F 33.3 °F 29.91 in West 2.7 mph 4.0 mph 76 % 0.00 in
11:34 40.5 °F 33.2 °F 29.90 in WSW 3.3 mph 5.0 mph 75 % 0.00 in
11:39 40.6 °F 33.3 °F 29.90 in Calm   1.0 mph 75 % 0.00 in
11:44 40.6 °F 33.6 °F 29.90 in NW 1.8 mph 2.3 mph 76 % 0.00 in
11:49 40.6 °F 33.6 °F 29.91 in WNW 2.7 mph 5.8 mph 76 % 0.00 in
11:54 40.5 °F 33.5 °F 29.90 in West 2.8 mph 3.5 mph 76 % 0.00 in
11:59 40.3 °F 33.3 °F 29.90 in Calm   1.2 mph 76 % 0.00 in
12:04 40.4 °F 33.4 °F 29.90 in WNW 0.4 mph 1.2 mph 76 % 0.00 in
12:09 40.4 °F 32.8 °F 29.90 in WNW 1.3 mph 3.5 mph 74 % 0.00 in
12:14 40.5 °F 33.2 °F 29.90 in WNW 1.7 mph 3.5 mph 75 % 0.00 in
12:19 40.6 °F 32.3 °F 29.90 in WNW 0.3 mph 1.2 mph 72 % 0.00 in
12:24 40.9 °F 33.2 °F 29.89 in WNW 0.9 mph 2.3 mph 74 % 0.00 in
12:29 41.0 °F 32.3 °F 29.89 in West 3.2 mph 5.0 mph 71 % 0.00 in
12:34 41.2 °F 32.2 °F 29.89 in West 1.9 mph 4.0 mph 70 % 0.00 in
12:39 41.4 °F 32.7 °F 29.89 in West 0.2 mph 1.2 mph 71 % 0.00 in
12:44 41.6 °F 31.4 °F 29.89 in WSW 4.0 mph 4.6 mph 67 % 0.00 in
12:49 41.8 °F 32.4 °F 29.89 in West 1.7 mph 3.5 mph 69 % 0.00 in
12:54 41.8 °F 32.7 °F 29.89 in NW 1.4 mph 4.6 mph 70 % 0.00 in
12:59 42.0 °F 32.6 °F 29.88 in Calm   1.0 mph 69 % 0.00 in
13:04 42.2 °F 32.0 °F 29.87 in West 0.4 mph 3.0 mph 67 % 0.00 in
13:09 42.4 °F 30.7 °F 29.87 in WSW 1.6 mph 3.5 mph 63 % 0.00 in
13:15 42.5 °F 32.3 °F 29.88 in WNW 1.6 mph 3.5 mph 67 % 0.00 in
13:20 42.5 °F 31.9 °F 29.88 in West 0.1 mph 3.0 mph 66 % 0.00 in
13:25 42.4 °F 31.5 °F 29.88 in NW 0.3 mph 3.5 mph 65 % 0.00 in
13:30 42.4 °F 31.8 °F 29.87 in NW 0.6 mph 3.5 mph 66 % 0.00 in
13:35 42.5 °F 31.9 °F 29.86 in WNW 1.0 mph 3.0 mph 66 % 0.00 in
13:40 42.5 °F 31.2 °F 29.86 in WSW 0.8 mph 3.5 mph 64 % 0.00 in
13:45 42.5 °F 30.4 °F 29.86 in SW 4.6 mph 5.8 mph 62 % 0.00 in
13:50 42.6 °F 30.5 °F 29.86 in WSW 3.6 mph 5.8 mph 62 % 0.00 in
13:55 42.5 °F 30.8 °F 29.86 in West 2.6 mph 4.6 mph 63 % 0.00 in
14:00 42.5 °F 31.6 °F 29.87 in West 1.5 mph 2.3 mph 65 % 0.00 in
14:05 42.6 °F 32.0 °F 29.87 in WNW 1.4 mph 3.5 mph 66 % 0.00 in
14:10 42.4 °F 31.1 °F 29.87 in WNW 1.8 mph 3.5 mph 64 % 0.00 in
14:15 42.3 °F 31.0 °F 29.87 in NW 1.9 mph 4.0 mph 64 % 0.00 in
14:20 42.2 °F 30.9 °F 29.88 in WNW 0.8 mph 2.3 mph 64 % 0.00 in
14:26 42.1 °F 31.2 °F 29.88 in NW 1.9 mph 3.5 mph 65 % 0.00 in
14:31 42.1 °F 31.2 °F 29.87 in NW 1.0 mph 2.3 mph 65 % 0.00 in
14:36 42.2 °F 30.9 °F 29.88 in NW 0.9 mph 2.3 mph 64 % 0.00 in
14:41 42.2 °F 30.9 °F 29.88 in NW 0.8 mph 2.3 mph 64 % 0.00 in
14:46 42.2 °F 30.9 °F 29.88 in NW 0.1 mph 1.2 mph 64 % 0.00 in
14:51 42.3 °F 30.6 °F 29.88 in NW 0.6 mph 3.5 mph 63 % 0.00 in
14:56 42.3 °F 30.6 °F 29.89 in NW 1.5 mph 3.5 mph 63 % 0.00 in
15:01 42.3 °F 30.6 °F 29.89 in WNW 0.8 mph 2.3 mph 63 % 0.00 in
15:06 42.3 °F 30.6 °F 29.90 in WNW 0.2 mph 2.3 mph 63 % 0.00 in
15:11 42.3 °F 30.2 °F 29.90 in WNW 1.2 mph 3.5 mph 62 % 0.00 in
15:16 42.4 °F 30.3 °F 29.90 in WNW 2.1 mph 4.0 mph 62 % 0.00 in
15:21 42.5 °F 30.4 °F 29.91 in WNW 1.0 mph 2.3 mph 62 % 0.00 in
15:26 42.6 °F 29.7 °F 29.91 in WNW 0.3 mph 3.5 mph 60 % 0.00 in
15:31 42.7 °F 29.8 °F 29.91 in WNW 0.7 mph 3.5 mph 60 % 0.00 in
15:36 42.9 °F 30.4 °F 29.91 in WNW 2.6 mph 3.5 mph 61 % 0.00 in
15:42 42.9 °F 29.5 °F 29.91 in WNW 2.1 mph 3.5 mph 59 % 0.00 in
15:47 43.0 °F 30.5 °F 29.92 in WNW 1.4 mph 3.5 mph 61 % 0.00 in
15:52 43.0 °F 30.5 °F 29.92 in WNW 0.3 mph 1.2 mph 61 % 0.00 in
15:57 43.1 °F 31.0 °F 29.92 in Calm     62 % 0.00 in
16:02 43.1 °F 31.0 °F 29.92 in WNW 0.1 mph 1.0 mph 62 % 0.00 in
16:07 43.0 °F 30.1 °F 29.92 in WNW 0.3 mph 1.2 mph 60 % 0.00 in
16:12 43.0 °F 30.5 °F 29.93 in WNW 1.1 mph 3.5 mph 61 % 0.00 in
16:17 42.9 °F 30.0 °F 29.93 in WNW 0.8 mph 2.3 mph 60 % 0.00 in
16:22 42.8 °F 30.3 °F 29.92 in WNW 1.2 mph 3.5 mph 61 % 0.00 in
16:27 42.7 °F 29.8 °F 29.92 in WNW 2.1 mph 3.5 mph 60 % 0.00 in
16:32 42.6 °F 30.1 °F 29.92 in Calm     61 % 0.00 in
16:37 42.6 °F 30.9 °F 29.92 in Calm     63 % 0.00 in
16:42 42.5 °F 31.2 °F 29.92 in Calm     64 % 0.00 in
16:47 42.4 °F 31.1 °F 29.92 in Calm   1.2 mph 64 % 0.00 in
16:52 42.3 °F 30.6 °F 29.92 in WNW 0.1 mph 1.2 mph 63 % 0.00 in
16:53 42.3 °F 31.4 °F 29.92 in WNW 0.3 mph 1.2 mph 65 % 0.00 in
16:58 42.1 °F 31.2 °F 29.93 in WNW 1.0 mph 2.0 mph 65 % 0.00 in
17:03 42.1 °F 32.3 °F 29.93 in Calm   1.2 mph 68 % 0.00 in
17:08 42.0 °F 31.5 °F 29.94 in WNW 0.4 mph 2.3 mph 66 % 0.00 in
17:13 41.8 °F 31.3 °F 29.94 in Calm   1.0 mph 66 % 0.00 in
17:18 41.7 °F 31.6 °F 29.94 in WNW 1.0 mph 2.0 mph 67 % 0.00 in
17:23 41.6 °F 31.1 °F 29.94 in WNW 1.0 mph 3.0 mph 66 % 0.00 in
17:28 41.5 °F 31.3 °F 29.95 in Calm   2.0 mph 67 % 0.00 in
17:33 41.4 °F 31.6 °F 29.95 in WNW 1.0 mph 3.0 mph 68 % 0.00 in
17:38 41.3 °F 31.9 °F 29.95 in Calm   2.0 mph 69 % 0.00 in
17:43 41.1 °F 31.7 °F 29.95 in WNW 0.1 mph   69 % 0.00 in
17:48 41.0 °F 32.0 °F 29.95 in Calm     70 % 0.00 in
17:53 40.8 °F 31.8 °F 29.95 in Calm   1.0 mph 70 % 0.00 in
17:58 40.6 °F 31.9 °F 29.95 in Calm   1.0 mph 71 % 0.00 in
18:03 40.4 °F 32.1 °F 29.96 in Calm     72 % 0.00 in
18:09 40.1 °F 32.5 °F 29.96 in Calm     74 % 0.00 in
18:13 39.9 °F 32.6 °F 29.96 in NNW 1.4 mph 2.3 mph 75 % 0.00 in
18:19 39.7 °F 32.4 °F 29.96 in NNW 0.9 mph 2.3 mph 75 % 0.00 in
18:24 39.3 °F 32.0 °F 29.97 in NNW 0.3 mph 2.3 mph 75 % 0.00 in
18:29 39.1 °F 32.2 °F 29.97 in Calm     76 % 0.00 in
18:34 38.8 °F 32.2 °F 29.97 in NNW 1.2 mph 2.3 mph 77 % 0.00 in
18:39 38.6 °F 32.3 °F 29.97 in NNW 0.3 mph 1.2 mph 78 % 0.00 in
18:44 38.4 °F 32.5 °F 29.98 in NNW 1.2 mph 2.3 mph 79 % 0.00 in
18:49 38.2 °F 32.6 °F 29.98 in Calm     80 % 0.00 in
18:54 38.0 °F 32.7 °F 29.98 in NNW 0.6 mph 1.2 mph 81 % 0.00 in
18:59 37.9 °F 32.6 °F 29.99 in NNW 0.3 mph 1.2 mph 81 % 0.00 in
19:04 37.7 °F 32.7 °F 29.99 in NNW 0.1 mph 1.2 mph 82 % 0.00 in
19:09 37.5 °F 32.5 °F 29.99 in Calm   2.3 mph 82 % 0.00 in
19:14 37.4 °F 32.7 °F 29.99 in Calm   2.3 mph 83 % 0.00 in
19:19 37.3 °F 32.9 °F 29.99 in Calm     84 % 0.00 in
19:24 37.1 °F 32.7 °F 30.00 in Calm     84 % 0.00 in
19:29 37.1 °F 33.0 °F 30.00 in NNW 1.3 mph 2.3 mph 85 % 0.00 in
19:34 37.0 °F 33.2 °F 30.00 in North 1.1 mph 2.3 mph 86 % 0.00 in
19:39 36.9 °F 33.1 °F 30.01 in NNE 1.6 mph 3.5 mph 86 % 0.00 in
19:45 36.9 °F 33.4 °F 30.01 in NNE 0.5 mph 2.3 mph 87 % 0.00 in
19:50 36.8 °F 33.3 °F 30.01 in NNE 0.5 mph 2.3 mph 87 % 0.00 in
19:55 36.8 °F 33.3 °F 30.01 in Calm     87 % 0.00 in
20:00 36.7 °F 33.2 °F 30.02 in NNE 0.1 mph 2.0 mph 87 % 0.00 in
20:05 36.6 °F 32.8 °F 30.02 in Calm     86 % 0.00 in
20:10 36.5 °F 32.7 °F 30.02 in NNE 1.6 mph 3.5 mph 86 % 0.00 in
20:15 36.4 °F 32.3 °F 30.02 in East 2.9 mph 4.6 mph 85 % 0.00 in
20:20 36.3 °F 32.2 °F 30.02 in East 1.9 mph 3.5 mph 85 % 0.00 in
20:25 36.2 °F 32.4 °F 30.02 in East 4.0 mph 5.8 mph 86 % 0.00 in
20:30 36.2 °F 32.4 °F 30.02 in ENE 1.3 mph 3.5 mph 86 % 0.00 in
20:35 36.1 °F 32.6 °F 30.03 in ENE 2.4 mph 3.5 mph 87 % 0.00 in
20:40 36.0 °F 32.5 °F 30.03 in ENE 1.8 mph 3.5 mph 87 % 0.00 in
20:45 35.9 °F 32.4 °F 30.03 in ENE 3.1 mph 3.5 mph 87 % 0.00 in
20:50 35.8 °F 32.3 °F 30.03 in East 1.8 mph 4.6 mph 87 % 0.00 in
20:55 35.7 °F 32.2 °F 30.04 in East 1.6 mph 2.3 mph 87 % 0.00 in
21:00 35.6 °F 32.1 °F 30.04 in East 3.5 mph 4.6 mph 87 % 0.00 in
21:06 35.5 °F 32.3 °F 30.04 in East 2.0 mph 3.5 mph 88 % 0.00 in
21:11 35.4 °F 32.2 °F 30.04 in East 2.2 mph 3.5 mph 88 % 0.00 in
21:16 35.3 °F 32.1 °F 30.04 in East 1.1 mph 2.3 mph 88 % 0.00 in
21:21 35.3 °F 32.1 °F 30.05 in East 1.3 mph 2.3 mph 88 % 0.00 in
21:26 35.3 °F 32.1 °F 30.04 in East 1.4 mph 2.3 mph 88 % 0.00 in
21:31 35.2 °F 32.0 °F 30.03 in East 1.4 mph 2.3 mph 88 % 0.00 in
21:36 35.2 °F 32.3 °F 30.03 in East 1.0 mph 2.3 mph 89 % 0.00 in
21:41 35.2 °F 32.3 °F 30.03 in East 3.2 mph 5.0 mph 89 % 0.00 in
21:46 35.2 °F 32.3 °F 30.03 in ENE 2.8 mph 4.0 mph 89 % 0.00 in
21:51 35.2 °F 32.3 °F 30.04 in East 2.9 mph 3.5 mph 89 % 0.00 in
21:56 35.1 °F 32.2 °F 30.05 in East 3.0 mph 5.8 mph 89 % 0.00 in
22:01 35.1 °F 32.2 °F 30.04 in East 3.0 mph 3.5 mph 89 % 0.00 in
22:06 35.1 °F 32.2 °F 30.05 in ENE 3.0 mph 4.6 mph 89 % 0.00 in
22:11 35.0 °F 32.1 °F 30.05 in ENE 2.8 mph 3.5 mph 89 % 0.00 in
22:16 35.0 °F 32.1 °F 30.04 in East 4.3 mph 5.8 mph 89 % 0.00 in
22:21 34.8 °F 31.9 °F 30.05 in East 4.1 mph 5.0 mph 89 % 0.00 in
22:26 34.8 °F 31.9 °F 30.05 in East 3.2 mph 4.6 mph 89 % 0.00 in
22:31 34.7 °F 31.8 °F 30.05 in East 4.2 mph 5.8 mph 89 % 0.00 in
22:36 34.7 °F 31.8 °F 30.04 in East 4.5 mph 5.8 mph 89 % 0.00 in
22:41 34.6 °F 31.7 °F 30.06 in East 3.5 mph 5.0 mph 89 % 0.00 in
22:47 34.6 °F 31.7 °F 30.06 in East 3.6 mph 5.0 mph 89 % 0.00 in
22:52 34.5 °F 31.6 °F 30.05 in East 2.9 mph 5.0 mph 89 % 0.00 in
22:57 34.4 °F 31.5 °F 30.06 in East 4.9 mph 5.8 mph 89 % 0.00 in
23:02 34.4 °F 31.5 °F 30.06 in East 4.2 mph 5.8 mph 89 % 0.00 in
23:07 34.3 °F 31.4 °F 30.06 in East 4.3 mph 4.6 mph 89 % 0.00 in
23:12 34.3 °F 31.4 °F 30.07 in East 4.2 mph 5.8 mph 89 % 0.00 in
23:17 34.3 °F 31.4 °F 30.07 in East 3.8 mph 5.0 mph 89 % 0.00 in
23:22 34.3 °F 31.4 °F 30.07 in ENE 3.1 mph 5.8 mph 89 % 0.00 in
23:27 34.4 °F 31.5 °F 30.08 in ENE 3.2 mph 3.5 mph 89 % 0.00 in
23:32 34.4 °F 31.5 °F 30.07 in ENE 4.2 mph 4.6 mph 89 % 0.00 in
23:37 34.4 °F 31.5 °F 30.08 in East 2.7 mph 3.5 mph 89 % 0.00 in
23:42 34.4 °F 31.5 °F 30.08 in East 4.1 mph 5.0 mph 89 % 0.00 in
23:47 34.5 °F 31.6 °F 30.07 in East 3.0 mph 5.0 mph 89 % 0.00 in
23:52 34.5 °F 31.6 °F 30.07 in ENE 3.0 mph 4.6 mph 89 % 0.00 in
23:57 34.5 °F 31.6 °F 30.08 in ENE 4.1 mph 4.6 mph 89 % 0.00 in
Crab Meadow Weather
Compliments of Weather Underground - 3 mb

Script developed by  Jim McMurry - jmcmurry@mwt.net Adapted for the template by  Wim van der Kuil - Leuven-Template.eu

Weather Terms: Outlook - A hazardous weather outlook is issued daily to indicate that a hazardous weather or hydrologic event may occur in the next several days. The outlook will include information about potential severe thunderstorms , heavy rain or flooding, winter weather, extremes of heat or cold, etc., that may develop over the next 7 days with an emphasis on the first 24 hours of the forecast. It is intended to provide information to those who need considerable lead time to prepare for the event.